Tracking 35237 objects as of 5-Sep-2026
HD Live streaming from Space Station
objects crossing your sky now

PEGASUS DEB


PEGASUS DEB is no longer on orbit


NORAD ID: 24119
Int'l Code: 1994-029FS
Launch date: May 19, 1994
Source: United States (US)
Launch site: AIR FORCE WESTERN TEST RANGE (AFWTR)
Decay date: 1998-01-19

Note: This is SATELLITE DEBRIS
Your satellite tracking list
Your tracking list is empty




NASA's NSSDC Master Catalog

Two Line Element Set (TLE):
1 24119U 94029FS  98018.54155825 +.04970104 +38220-1 +18454-1 0  9996
2 24119 082.0576 317.9388 0025315 121.6849 238.8622 15.92540619101615
Source of the keplerian elements: AFSPC